Regional Weather Roundup
Issued by NWS Binghamton, NY

Home | Current Version | Previous Version | Text Only | Print | Product List | Glossary On
Versions: 1 2 3 4 5 6 7 8 9 10 11 12 13 14 15 16 17 18 19 20 21 22 23 24 25 26 27 28 29 30 31 32 33 34 35 36 37 38 39 40 41 42 43 44 45 46 47 48 49 50
510
ASUS41 KBGM 181910
RWRBGM

REGIONAL WEATHER ROUNDUP
NATIONAL WEATHER SERVICE BINGHAMTON NY
200 PM EST THU JAN 18 2018

Note: "fair" indicates few or no clouds below 12,000 feet with no
significant weather and/or obstructions to visibility.

* = Station(s) that does not report precipitation, such as rain,
snow, etc, also no thunder or fog.

NYZ009-015>018-022>025-036-037-044>046-055>057-062-182000
...Central New York...

CITY           SKY/WX    TMP DP  RH WIND       PRES   REMARKS
Binghamton     FAIR      19   8  62 W10       29.93F WCI   7
Cortland       CLOUDY    19  12  73 W9        29.98F WCI   9
Dansville      CLOUDY    22   9  57 MISG      30.03F
Elmira         FAIR      23  10  57 W9        30.00F WCI  13
Seneca Falls   CLOUDY    21  10  63 W16       30.04F WCI   7
Ithaca         FAIR      21  11  65 NW14      30.00F WCI   8
Hornell        MOSUNNY   19   9  63 W13G18    30.03F WCI   7
Monticello     FLURRIES  23  11  60 NW10G20   29.90F WCI  12
Penn Yan       CLOUDY    21   8  57 W10       30.01F WCI  10
Rome           MIX PCPN  20  12  71 W10       30.02F WCI   9
Sidney         CLOUDY    19  10  68 W9        29.98F WCI   9
Syracuse       CLOUDY    21  13  71 SW20      30.02S WCI   6
$$

PAZ038>040-043-044-047-048-072-182000
...Northeast Pennsylvania...

CITY           SKY/WX    TMP DP  RH WIND       PRES   REMARKS
Hazleton       FAIR      27   9  46 W10G20    29.96F WCI  17
Scranton       FAIR      22   9  57 N12       29.98F WCI  10
$$
&&
KEY
WCI = Wind Chill Index
VSB = Visibility
HX  = Heat Index
$$




USA.gov is the U.S. government's official web portal to all federal, state and local government web resources and services.